Hourly Data Report for November 08, 2016

All times are specified in Local Standard Time (LST). Add 1 hour to adjust for Daylight Saving Time where and when it is observed.

KITCHENER/WATERLOO
ONTARIO

43°27'39.000" N
80°22'43.000" W
321.60 m
6144239
71368
YKF

Download Data

Hourly Data (November 2016)
Hourly Data Report for November 8, 2016
Temp Definition
°C
Dew Point Temp Definition
°C
Rel Hum Definition
%
Wind Dir Definition
10's deg

Wind Spd Definition
km/h
Visibility Definition
km
Stn Press Definition
kPa
Hmdx Definition


Wind Chill Definition


Weather Definition


TIME
00:00 Legend Double Dagger 1.3 1.0 98   0 2.0 98.60     Fog
01:00 Legend Double Dagger 0.7 0.4 98 8 4 0.8 98.56     Fog
02:00 Legend Double Dagger 0.1 0.0 99 6 5 2.0 98.48     Fog
03:00 Legend Double Dagger 0.1 0.0 99   0 2.8 98.42     Fog
04:00 Legend Double Dagger 0.5 0.4 99   0 2.4 98.34     Fog
05:00 Legend Double Dagger -0.2 -0.3 99 9 4 1.2 98.28   -1 Fog
06:00 Legend Double Dagger 0.7 0.6 99 19 5 14.5 98.24     LegendNANA
07:00 Legend Double Dagger 2.4 2.1 98 19 4 14.5 98.20     LegendNANA
08:00 Legend Double Dagger 2.5 2.2 98 18 5 4.8 98.18     Fog
09:00 Legend Double Dagger 9.6 9.2 97 19 5 16.1 98.14     LegendNANA
10:00 Legend Double Dagger 11.6 8.5 81 21 5 16.1 98.08     LegendNANA
11:00 Legend Double Dagger 13.2 7.8 70 22 13 16.1 98.00     LegendNANA
12:00 Legend Double Dagger 14.5 7.9 64 23 11 16.1 97.91     LegendNANA
13:00 Legend Double Dagger 14.8 7.4 61 22 18 16.1 97.83     LegendNANA
14:00 Legend Double Dagger 15.6 7.5 58 23 22 16.1 97.73     LegendNANA
15:00 Legend Double Dagger 13.4 8.8 73 22 21 16.1 97.70     Rain
16:00 Legend Double Dagger 11.6 9.4 86 24 17 11.3 97.70     Rain
17:00 Legend Double Dagger 10.9 9.7 92 26 17 4.8 97.71     Rain,Fog
18:00 Legend Double Dagger 10.2 9.4 95 24 9 4.8 97.69     Rain,Fog
19:00 Legend Double Dagger 10.2 9.6 96 24 8 2.8 97.68     Rain,Fog
20:00 Legend Double Dagger 10.3 9.5 95 28 9 3.2 97.66     Fog
21:00 Legend Double Dagger 10.3 9.4 94 31 17 4.0 97.65     Fog
22:00 Legend Double Dagger 10.0 9.1 94 31 9 4.8 97.66     Fog
23:00 Legend Double Dagger 9.7 8.3 91 32 18 16.1 97.66     LegendNANA

Notes on Data Quality.

Legend

  • E = Estimated
  • M = Missing
  • NA = Not Available
  • ‡ = Partner data that is not subject to review by the National Climate Archives
Date modified: